TimePDT,TemperatureF,Dew PointF,Humidity,Sea Level PressureIn,VisibilityMPH,Wind Direction,Wind SpeedMPH,Gust SpeedMPH,PrecipitationIn,Events,Conditions,WindDirDegrees,DateUTC
12:56 AM,86.0,57.0,37,29.97,10.0,NW,9.2,-,N/A,,Clear,310,2013-06-28 07:56:00
1:56 AM,82.9,55.9,39,29.96,10.0,NNW,9.2,-,N/A,,Clear,330,2013-06-28 08:56:00
2:56 AM,84.9,55.9,37,29.95,10.0,NNW,12.7,-,N/A,,Clear,330,2013-06-28 09:56:00
3:56 AM,79.0,55.9,45,29.95,10.0,NNW,8.1,-,N/A,,Clear,330,2013-06-28 10:56:00
4:56 AM,75.9,57.0,52,29.95,10.0,WNW,8.1,-,N/A,,Clear,290,2013-06-28 11:56:00
5:56 AM,75.0,55.9,51,29.96,10.0,NW,3.5,-,N/A,,Clear,320,2013-06-28 12:56:00
6:56 AM,79.0,55.9,45,29.98,8.0,Calm,Calm,-,N/A,,Clear,0,2013-06-28 13:56:00
7:13 AM,75.2,57.2,53,29.98,10.0,NW,5.8,-,N/A,,Partly Cloudy,310,2013-06-28 14:13:00
7:56 AM,78.4,57.9,49,29.98,10.0,NW,6.9,-,N/A,,Partly Cloudy,320,2013-06-28 14:56:00
8:56 AM,83.5,59.0,43,29.99,10.0,WNW,5.8,-,N/A,,Partly Cloudy,290,2013-06-28 15:56:00
9:56 AM,97.0,57.9,27,29.97,10.0,WNW,9.2,-,N/A,,Clear,300,2013-06-28 16:56:00
10:56 AM,92.1,55.9,29,29.96,10.0,NNW,10.4,-,N/A,,Scattered Clouds,330,2013-06-28 17:56:00
11:56 AM,94.6,55.9,27,29.96,10.0,NNW,10.4,18.4,N/A,,Scattered Clouds,340,2013-06-28 18:56:00
12:56 PM,97.5,59.0,28,29.94,10.0,Variable,5.8,16.1,N/A,,Scattered Clouds,0,2013-06-28 19:56:00
1:56 PM,99.3,57.0,24,29.91,10.0,NNW,12.7,18.4,N/A,,Scattered Clouds,340,2013-06-28 20:56:00
2:56 PM,100.6,57.0,23,29.89,10.0,North,12.7,19.6,N/A,,Scattered Clouds,360,2013-06-28 21:56:00
3:56 PM,101.8,59.0,24,29.86,10.0,North,13.8,20.7,N/A,,Scattered Clouds,360,2013-06-28 22:56:00
4:56 PM,101.7,57.0,23,29.84,10.0,NNW,11.5,-,N/A,,Scattered Clouds,340,2013-06-28 23:56:00
5:56 PM,101.3,55.0,21,29.84,10.0,North,13.8,-,N/A,,Scattered Clouds,350,2013-06-29 00:56:00
6:56 PM,109.0,55.9,17,29.84,10.0,North,12.7,-,N/A,,Clear,360,2013-06-29 01:56:00
7:56 PM,102.9,59.0,23,29.84,10.0,NNW,9.2,-,N/A,,Clear,330,2013-06-29 02:56:00
8:56 PM,96.1,55.9,26,29.84,10.0,NW,8.1,-,N/A,,Clear,320,2013-06-29 03:56:00
9:56 PM,89.1,57.0,34,29.86,10.0,NW,8.1,-,N/A,,Clear,310,2013-06-29 04:56:00
10:56 PM,90.0,57.0,33,29.86,10.0,NW,6.9,-,N/A,,Clear,310,2013-06-29 05:56:00
11:56 PM,90.0,55.9,31,29.86,10.0,NNW,11.5,-,N/A,,Clear,330,2013-06-29 06:56:00